map of QSF home
QSF - Airport
Location
City:  SÚtif, SÚtif, Algeria
Name:Ain Arnat Airport
Old (Alt.):SÚtif International, 8 Mai 45 Airport
ICAO:DAAS
IATA:QSF

Details
Type:Airport (Aerodrome, Airfield)
Use:Public/Civil, International (customs port of entry)
Latitude:36░10'43"N (36.178611)
Longitude:5░19'48"E (5.330000)
Elevation:3330 ft (1015 m)
Variation:1.74░E (WMM2015v2 magnetic declination)
0.13░ annual change
Runways:1
Longest:7874 × 148 ft (2400 × 45 m)

Time
Time Zone:UTC+1
Local Time:

Weather
METAR:DAAS 041400Z 32010KT 5000 FEW010 BKN026 03/M02 Q1021
TAF:DAAS 041100Z 0412/0512 32015KT 5000 -RA SCT013TCU BKN023
TEMPO 0412/0422 30015G25KT 1000 -SN OVC008 PROB30
TEMPO 0414/0424 30020G40KT 3000 -TSRA SCT020CB

Related Locations
Nearby:
Farthest:GIS: 12002 mi / 19315 km
Gisborne, GIS, NZ

Find:

   beyond  
but within

Other Information
Maps:
NOTAMs:
Links:
Sources:

  
  • flag of Algeria
  

Sectional Chart

Flight Planning
at skyvector.com

Satellite Image

Google Maps Satellite view

 

Copyright © 2004-2019 Karl L. Swartz. All rights reserved.
The Great Circle Mapper name and logo are trademarks of the Great Circle Mapper.
All other trademarks mentioned herein belong to their respective owners.
Please see credits for attibutions and further copyright information.

  Follow gcmap on Facebook Follow gcmap on Twitter GCmap on LinkedIn

hCard Microformat

Geo Microformat